Flag for Cyprus Weather past 2 weeks in Paphos, Cyprus

Now
70 °F

Mild.


Feels Like: 70 °F
Forecast: 76 / 91 °F
Wind: 8 mph from Northeast

Location: Paphos Airport

Current Time: Aug 30, 2015 at 5:30:11 AM

Latest Report: Aug 30, 2015 at 5:00 AM


Visibility: N/A

Pressure: 29.80 "Hg

Humidity: 60%

Dew point: 55 °F

Location of PaphosLocation

Historic Weather in Paphos — Graph

°F

Paphos temperature yesterday

Maximum temperature yesterday: 90 °F (at 2:00 PM)
Minimum temperature yesterday: 72 °F (at 3:30 AM)
Average temperature yesterday: 82 °F

Past Weeks' High & Low Weather Summary

 TemperatureHumidityPressure
High91 °F (Aug 16, 12:30 PM)94% (Aug 19, 2:30 AM)29.89 "Hg (Aug 19, 2:30 AM)
Low70 °F (Aug 27, 5:00 AM)38% (Aug 26, 9:00 AM)29.68 "Hg (Aug 22, 5:30 PM)
Average82 °F72%29.78 "Hg
* Reported Aug 15 4:00 AM — Aug 30 4:00 AM, Paphos, Weather by CustomWeather, © 2015

Note: Actual official high and low records may vary slightly from our data, if they occured in-between our weather recording intervals... More about our weather records

Advertising

Paphos weather history for previous 24 hours

 ConditionsComfort  
Time TempWeatherWind HumidityBarometerVisibility
4:00 AM
Sun, Aug 30
72 °FMild.8 mph65%29.80 "HgN/A
3:30 AM72 °FMild.6 mph69%29.80 "HgN/A
3:00 AM73 °FClear.3 mph69%29.80 "Hg10 mi
2:30 AM73 °FClear.2 mph74%29.80 "Hg10 mi
2:00 AM75 °FClear.5 mph74%29.83 "Hg10 mi
1:30 AM79 °FPassing clouds.5 mph65%29.83 "HgN/A
1:00 AM77 °FPassing clouds.3 mph65%29.83 "HgN/A
12:00 AM77 °FPassing clouds.3 mph61%29.83 "HgN/A
11:30 PM
Sat, Aug 29
75 °FPassing clouds.6 mph61%29.83 "HgN/A
11:00 PM77 °FPassing clouds.6 mph57%29.83 "HgN/A
10:30 PM81 °FClear.5 mph62%29.83 "Hg10 mi
10:00 PM81 °FPassing clouds.5 mph62%29.83 "HgN/A
9:30 PM82 °FPassing clouds.5 mph70%29.83 "HgN/A
9:00 PM82 °FPassing clouds.3 mph62%29.83 "HgN/A
8:30 PM82 °FPassing clouds.8 mph66%29.80 "HgN/A
8:00 PM84 °FPassing clouds.10 mph66%29.80 "HgN/A
7:30 PM86 °FPassing clouds.12 mph62%29.80 "HgN/A
7:00 PM88 °FPassing clouds.14 mph59%29.80 "HgN/A
6:30 PM88 °FPassing clouds.15 mph55%29.80 "HgN/A
6:00 PM88 °FPassing clouds.16 mph59%29.80 "HgN/A
5:30 PM88 °FPassing clouds.17 mph66%29.80 "HgN/A
5:00 PM88 °FPassing clouds.16 mph70%29.80 "HgN/A
4:30 PM90 °FPassing clouds.17 mph63%29.80 "HgN/A
4:00 PM90 °FPassing clouds.17 mph63%29.83 "HgN/A
3:30 PM90 °FPassing clouds.17 mph63%29.83 "HgN/A
3:00 PM90 °FPassing clouds.16 mph67%29.83 "HgN/A
2:30 PM90 °FPassing clouds.15 mph71%29.83 "HgN/A
2:00 PM90 °FPassing clouds.17 mph71%29.83 "HgN/A
1:00 PM88 °FPassing clouds.18 mph75%29.86 "HgN/A
12:30 PM88 °FPassing clouds.18 mph75%29.86 "HgN/A
12:00 PM88 °FPassing clouds.17 mph70%29.86 "HgN/A
11:00 AM88 °FPassing clouds.17 mph70%29.86 "HgN/A
10:30 AM88 °FSunny.16 mph70%29.86 "Hg10 mi
10:00 AM86 °FSunny.15 mph70%29.86 "Hg10 mi
9:00 AM86 °FSunny.9 mph70%29.86 "Hg10 mi
8:30 AM86 °FPassing clouds.7 mph66%29.86 "HgN/A
8:00 AM81 °FSunny.5 mph54%29.86 "Hg10 mi
7:00 AM73 °FClear.7 mph69%29.83 "Hg10 mi
6:00 AM72 °FClear.No wind73%29.83 "Hg10 mi
5:30 AM72 °FMild.3 mph73%29.83 "HgN/A
5:00 AM72 °FMild.6 mph78%29.83 "HgN/A
Weather by CustomWeather, © 2015

See weather overviewHow to use our weather pages